Wind_Speed
19 18 16 14 15 14 14 11 8 7 7 8 8 7 6 6 7 7 8 8 8 9 10 10 10 9 9 9 9 9 9 10 10 9 9 9 8 8 7 6 6 5 3 2
21 18 16 16 16 16 16 13 11 9 9 10 9 7 6 6 6 6 7 8 7 8 8 9 9 8 8 8 8 8 8 8 9 9 9 9 8 8 7 7 6 5 4 3
21 18 18 18 18 18 17 15 14 13 13 12 12 11 9 8 7 6 7 7 7 7 7 7 7 7 7 7 8 7 7 8 8 8 8 9 9 8 7 6 6 5 4 3
21 20 20 20 20 19 18 16 16 16 15 15 15 14 12 11 10 7 7 7 8 7 6 6 6 6 7 7 7 7 6 7 7 7 7 7 7 8 7 6 6 6 5 4
21 21 21 21 20 19 18 17 17 18 18 17 16 16 14 14 12 10 9 9 9 10 8 7 6 6 7 7 7 7 6 6 7 7 7 7 6 6 6 6 6 6 6 5
23 22 23 22 21 20 18 18 19 20 20 19 16 17 16 15 13 12 13 12 12 11 9 8 8 7 8 8 7 7 7 7 7 7 7 7 7 6 6 6 5 5 6 6
24 24 24 23 23 21 21 20 21 22 23 20 18 20 18 16 16 15 15 14 13 12 11 9 8 8 8 9 9 8 8 8 8 8 8 9 9 8 7 7 6 6 6 6
25 25 25 25 24 22 22 23 23 23 22 20 21 23 21 19 18 18 17 15 15 14 13 13 10 9 9 9 10 10 10 10 10 10 10 10 10 10 9 8 7 7 7 7
26 25 24 25 24 24 23 24 23 24 23 24 24 22 22 21 19 19 19 18 18 16 15 15 13 12 11 11 11 12 11 11 11 12 11 11 11 10 10 9 9 9 8 8
26 26 25 25 25 25 25 24 24 25 25 26 25 23 22 22 20 21 22 20 19 18 17 16 15 14 14 13 14 14 13 13 13 13 13 13 12 11 11 11 11 11 10 9
26 27 26 26 27 26 26 27 28 28 28 28 28 26 24 24 23 22 22 22 22 20 19 18 16 16 16 16 16 16 15 15 15 15 15 15 14 13 12 13 13 13 12 12
29 29 29 28 27 28 29 29 30 31 31 31 31 30 27 26 25 24 24 23 22 21 20 19 17 18 18 18 19 19 17 18 17 16 16 16 15 15 15 14 14 14 14 14
29 30 30 29 28 29 30 30 31 31 31 31 32 32 28 28 28 27 26 24 23 22 21 20 19 19 20 20 21 21 20 20 19 18 19 18 18 18 17 16 16 16 17 17
31 32 31 30 29 29 29 29 30 31 33 32 32 32 31 30 29 29 28 26 25 24 22 22 22 21 20 21 23 23 23 23 22 21 21 21 20 20 19 19 19 19 19 19
33 33 32 32 31 32 32 31 31 32 33 33 32 32 31 30 30 29 28 27 26 25 23 22 20 21 22 22 23 24 25 24 23 22 22 22 21 21 21 21 22 22 22 22
34 34 34 34 33 33 33 32 32 32 32 32 32 33 32 33 32 30 29 28 27 27 27 24 22 22 22 22 23 25 25 25 25 24 23 24 24 24 24 24 24 24 23 23
35 35 35 35 34 35 36 34 33 32 32 33 33 33 34 35 32 31 30 29 28 28 27 25 23 22 23 24 25 26 27 27 27 26 26 26 25 25 25 26 26 25 25 25
35 36 37 37 36 37 34 34 35 34 33 33 33 33 33 33 33 32 31 29 28 28 26 25 24 23 24 25 25 25 26 26 26 27 26 27 27 27 27 27 27 27 27 27
36 36 36 37 38 38 36 34 34 34 34 34 33 32 33 34 34 32 30 29 29 28 26 25 25 25 25 25 26 26 25 25 27 28 29 28 29 29 29 28 28 28 29 30
35 36 36 36 38 38 34 33 33 34 36 35 34 33 33 34 35 33 31 30 29 28 28 27 26 26 26 26 26 26 27 29 29 29 29 30 31 31 31 31 30 31 31 30
34 35 36 36 37 37 35 34 33 34 35 33 33 33 32 33 33 32 30 29 29 29 28 27 27 27 27 27 27 28 30 30 30 30 30 30 31 31 32 32 32 31 31 31
34 35 36 36 36 36 34 33 34 33 32 33 33 33 32 32 32 33 32 31 30 30 29 28 29 29 29 29 30 30 31 32 31 31 31 32 32 32 33 33 32 32 32 31
33 34 34 35 35 33 33 33 31 31 31 32 32 32 32 32 33 34 33 33 33 32 31 30 31 31 32 32 31 32 33 33 33 32 32 32 33 34 33 33 33 33 33 33
32 32 32 34 34 33 32 32 32 31 30 31 31 31 31 31 31 32 33 34 34 32 32 33 33 33 33 33 34 34 34 35 35 34 34 34 34 35 34 33 33 33 32 32
30 31 32 32 31 31 32 32 31 30 29 30 30 30 30 30 31 31 31 31 32 33 33 34 34 34 33 33 34 35 36 36 35 35 35 34 34 35 35 34 33 32 33 33
30 29 30 29 30 30 30 30 30 29 29 29 29 29 30 31 32 32 32 32 32 32 33 33 33 33 33 33 34 35 35 35 35 35 34 33 34 35 34 34 33 33 33 33
Wind_Direction
214 214 212 210 208 207 214 220 232 242 265 283 301 304 294 319 340 344 348 4 17 18 18 21 21 26 31 32 35 39 42 44 45 43 41 39 39 41 43 42 42 40 39 44
217 216 212 213 212 211 218 223 236 241 250 274 283 293 298 297 311 319 332 345 3 5 6 11 15 20 29 29 28 31 34 37 40 40 37 35 33 31 31 32 31 27 28 24
221 215 212 213 215 217 222 226 236 246 247 259 275 278 277 273 288 290 311 327 338 347 354 358 6 9 14 15 16 17 21 25 30 32 33 32 29 25 23 22 22 17 13 14
220 216 216 217 221 223 226 231 238 248 251 247 260 272 271 268 272 281 294 309 320 317 329 338 343 349 350 355 0 5 8 8 13 16 18 21 21 20 19 19 14 11 8 0
222 219 221 221 224 226 227 230 242 250 253 247 249 265 272 267 274 278 280 287 294 302 302 305 310 317 322 329 339 347 352 351 353 355 358 2 3 5 6 7 5 3 2 356
223 220 222 222 222 225 227 231 240 249 251 249 250 260 266 267 275 281 276 278 284 290 293 290 288 295 301 308 313 324 333 335 333 334 335 335 336 338 339 340 343 349 349 343
225 222 224 224 225 225 227 233 241 244 247 248 251 257 264 265 269 270 271 272 274 277 280 276 281 285 288 296 298 305 313 315 317 318 319 318 320 320 317 316 320 327 331 326
226 223 224 227 228 227 225 233 242 247 250 247 250 257 264 263 264 265 267 268 267 264 267 268 273 280 280 281 286 293 301 300 301 303 306 308 309 312 308 308 310 312 316 319
231 228 226 228 229 231 231 235 243 248 250 252 253 258 263 263 264 263 264 268 272 264 261 266 265 271 275 273 275 281 289 291 294 296 299 305 305 303 304 300 298 300 302 307
235 233 227 226 228 231 236 238 241 244 248 252 253 255 260 261 265 266 265 268 269 261 260 262 260 264 268 270 272 274 279 285 289 292 295 299 301 299 296 293 292 293 292 294
235 236 231 228 228 230 232 235 240 244 247 250 253 254 256 261 266 267 267 267 268 272 267 262 260 261 261 264 269 267 275 280 284 287 288 289 293 294 294 290 291 292 289 291
234 237 236 235 233 233 235 237 239 244 246 249 252 255 254 258 263 267 271 269 266 271 270 268 263 260 261 263 266 269 275 277 281 284 285 284 285 288 292 291 290 291 289 290
236 238 238 237 235 234 235 236 238 241 246 249 251 255 254 256 260 265 272 272 270 274 271 269 267 264 265 266 266 269 274 275 277 280 282 284 283 284 286 288 289 290 289 288
239 240 239 238 235 235 235 236 237 240 244 249 251 254 256 256 259 264 270 272 273 275 274 275 272 269 268 268 267 268 271 271 273 277 277 279 281 281 281 282 284 285 286 287
241 241 239 238 236 235 235 236 236 239 244 248 250 252 255 257 260 264 270 272 275 276 274 276 275 273 271 269 269 269 271 270 270 274 275 276 277 278 279 281 282 283 284 284
240 240 239 239 238 235 235 237 239 240 241 245 249 249 251 254 257 263 267 270 274 276 279 281 279 277 271 268 268 269 268 269 270 270 270 272 273 274 276 279 280 282 283 283
237 240 240 239 239 239 236 234 236 239 241 244 247 249 249 250 255 261 266 269 270 274 279 279 277 275 273 273 272 268 268 269 268 270 270 271 272 273 275 277 278 279 280 281
237 239 240 240 238 240 239 237 237 240 243 244 246 248 250 252 257 261 263 267 270 272 273 273 272 272 273 274 273 270 268 266 267 269 272 274 274 273 275 277 278 279 279 278
237 238 240 240 240 241 240 239 240 241 243 245 248 252 251 253 256 258 262 265 269 273 273 269 268 268 270 272 273 272 269 269 271 272 272 274 275 277 277 278 277 277 279 278
236 237 239 241 242 242 241 241 242 244 245 246 249 250 251 255 257 259 262 264 267 271 273 271 267 266 266 269 270 270 270 271 271 271 274 276 276 277 279 280 278 278 279 279
233 234 237 240 241 242 241 241 243 244 246 247 249 251 253 258 260 263 262 263 266 270 272 270 269 269 268 269 270 271 271 272 272 271 274 276 277 278 278 279 280 281 281 281
233 234 236 238 240 243 243 243 245 246 248 250 251 252 254 258 261 262 261 264 268 271 271 273 272 272 272 271 271 272 273 273 274 274 274 276 278 279 279 280 280 281 280 279
235 236 238 239 241 243 245 246 247 247 249 252 253 254 256 259 261 262 263 265 268 270 271 272 274 274 273 272 273 274 275 276 276 277 276 277 279 279 281 282 281 280 280 280
235 238 240 240 241 242 244 243 246 249 251 253 254 256 256 258 261 263 264 265 267 269 272 273 275 275 273 272 273 273 274 275 277 278 279 280 280 279 280 282 282 281 282 282
236 239 240 242 242 241 244 245 247 248 250 253 254 255 257 259 262 265 268 269 270 271 272 273 273 274 274 275 275 275 275 276 276 277 278 279 280 282 282 281 282 282 282 281
236 240 243 241 240 242 244 246 249 251 251 253 254 256 257 260 263 265 266 268 270 272 272 273 273 274 275 276 276 277 278 277 276 277 277 278 280 281 282 283 283 283 283 282
Height
5902 5905 5907 5909 5910 5912 5913 5913 5914 5914 5915 5914 5914 5914 5915 5914 5913 5913 5913 5912 5912 5912 5911 5910 5908 5907 5905 5904 5903 5901 5900 5899 5898 5896 5895 5894 5893 5891 5890 5889 5888 5888 5887 5887
5900 5902 5905 5906 5907 5908 5909 5911 5912 5913 5913 5913 5913 5913 5913 5914 5913 5913 5912 5912 5912 5911 5911 5910 5908 5907 5906 5905 5904 5902 5901 5900 5899 5897 5896 5894 5893 5892 5891 5890 5889 5888 5887 5887
5896 5900 5901 5902 5904 5905 5906 5908 5909 5910 5910 5911 5911 5911 5911 5911 5911 5911 5912 5911 5910 5910 5910 5909 5908 5907 5906 5905 5904 5903 5901 5900 5899 5898 5897 5895 5894 5892 5891 5890 5889 5888 5887 5886
5891 5895 5896 5898 5900 5902 5903 5905 5906 5906 5907 5908 5908 5908 5909 5909 5909 5909 5909 5908 5908 5908 5908 5908 5907 5906 5905 5905 5904 5902 5901 5900 5899 5898 5897 5895 5894 5893 5891 5890 5889 5887 5886 5885
5887 5890 5892 5894 5897 5898 5900 5901 5902 5902 5903 5904 5904 5905 5906 5905 5906 5907 5906 5906 5906 5906 5906 5906 5906 5905 5904 5903 5902 5901 5900 5899 5899 5898 5896 5895 5894 5892 5891 5889 5888 5887 5886 5885
5883 5885 5887 5890 5892 5894 5896 5897 5898 5898 5898 5899 5901 5901 5902 5902 5903 5904 5904 5904 5904 5903 5903 5903 5904 5903 5902 5901 5901 5900 5899 5898 5897 5896 5895 5894 5893 5891 5890 5888 5887 5886 5885 5884
5877 5880 5882 5885 5886 5889 5891 5893 5894 5893 5894 5895 5897 5896 5898 5899 5900 5900 5901 5901 5901 5900 5900 5900 5901 5901 5900 5899 5898 5898 5897 5896 5895 5894 5893 5892 5891 5889 5888 5887 5885 5884 5883 5882
5870 5874 5877 5879 5881 5884 5886 5887 5889 5889 5890 5891 5892 5892 5894 5894 5894 5895 5895 5895 5896 5896 5897 5896 5896 5897 5897 5896 5896 5895 5894 5894 5893 5892 5891 5890 5888 5887 5886 5885 5884 5883 5882 5881
5864 5868 5872 5874 5876 5879 5880 5881 5883 5884 5885 5886 5886 5888 5889 5889 5889 5890 5891 5891 5891 5892 5892 5892 5892 5892 5893 5892 5892 5892 5891 5891 5890 5889 5888 5887 5885 5884 5883 5882 5881 5880 5879 5878
5857 5861 5865 5868 5871 5872 5875 5876 5878 5878 5879 5879 5881 5882 5884 5884 5884 5885 5885 5885 5885 5887 5887 5887 5887 5887 5887 5888 5888 5888 5887 5887 5886 5885 5885 5884 5882 5881 5880 5879 5878 5877 5876 5875
5851 5854 5858 5861 5863 5866 5868 5870 5871 5872 5872 5873 5874 5878 5879 5879 5879 5879 5880 5880 5881 5881 5882 5881 5882 5882 5882 5882 5883 5882 5883 5882 5882 5881 5880 5879 5878 5877 5876 5875 5874 5873 5872 5871
5844 5847 5850 5854 5857 5859 5861 5863 5864 5866 5866 5867 5867 5872 5872 5873 5873 5873 5874 5875 5875 5876 5876 5876 5876 5876 5876 5876 5876 5877 5877 5877 5876 5876 5875 5874 5874 5873 5872 5870 5870 5869 5869 5867
5837 5839 5842 5846 5851 5852 5853 5854 5856 5858 5859 5860 5861 5864 5865 5867 5867 5868 5868 5869 5869 5869 5870 5870 5869 5870 5870 5869 5870 5870 5871 5871 5871 5870 5869 5869 5868 5868 5867 5866 5865 5864 5864 5863
5829 5831 5835 5838 5842 5844 5845 5847 5849 5850 5851 5853 5854 5856 5858 5861 5861 5861 5862 5863 5862 5862 5863 5863 5863 5863 5863 5863 5863 5864 5864 5865 5865 5864 5864 5863 5863 5862 5862 5861 5860 5859 5857 5856
5821 5824 5826 5830 5833 5835 5837 5839 5841 5843 5844 5846 5848 5849 5852 5854 5855 5855 5855 5856 5855 5856 5856 5856 5856 5856 5856 5857 5857 5857 5858 5857 5858 5858 5858 5857 5857 5856 5855 5854 5853 5852 5851 5850
5813 5815 5818 5821 5824 5827 5829 5832 5834 5836 5837 5839 5841 5842 5845 5846 5847 5848 5849 5849 5849 5849 5849 5849 5849 5849 5849 5850 5850 5850 5850 5851 5850 5851 5851 5850 5850 5849 5848 5847 5846 5844 5843 5842
5804 5807 5810 5813 5816 5818 5821 5825 5827 5828 5830 5832 5833 5836 5837 5838 5840 5842 5842 5843 5842 5843 5843 5843 5842 5842 5843 5843 5843 5843 5843 5843 5843 5843 5843 5842 5842 5841 5840 5839 5838 5837 5836 5835
5796 5799 5801 5804 5808 5809 5816 5817 5819 5821 5823 5825 5827 5828 5830 5832 5833 5834 5835 5835 5835 5836 5836 5836 5836 5836 5836 5836 5836 5835 5835 5835 5835 5835 5835 5834 5834 5833 5831 5830 5829 5829 5828 5827
5788 5790 5793 5795 5797 5800 5806 5809 5811 5812 5815 5817 5818 5820 5822 5824 5826 5826 5827 5828 5829 5829 5828 5828 5829 5829 5828 5828 5828 5828 5828 5828 5828 5827 5827 5827 5826 5825 5823 5821 5820 5819 5819 5818
5779 5781 5785 5786 5789 5792 5798 5801 5802 5805 5806 5809 5811 5813 5814 5816 5818 5819 5820 5820 5821 5821 5821 5820 5820 5820 5820 5820 5820 5819 5820 5819 5819 5819 5819 5818 5817 5816 5815 5814 5812 5811 5809 5808
5770 5772 5775 5778 5780 5783 5789 5792 5795 5797 5799 5801 5803 5805 5806 5808 5810 5811 5812 5812 5812 5813 5812 5811 5811 5812 5812 5812 5812 5812 5812 5811 5810 5810 5810 5809 5809 5807 5806 5805 5803 5801 5800 5799
5761 5764 5767 5770 5772 5778 5781 5784 5786 5788 5791 5793 5795 5797 5798 5800 5801 5802 5803 5804 5804 5805 5804 5804 5804 5804 5804 5804 5804 5804 5803 5803 5802 5800 5800 5800 5799 5798 5797 5795 5793 5791 5790 5788
5753 5757 5759 5763 5767 5769 5772 5774 5777 5780 5782 5784 5786 5788 5790 5792 5793 5794 5795 5796 5797 5797 5797 5796 5796 5796 5796 5796 5796 5795 5794 5793 5793 5791 5791 5790 5789 5788 5787 5785 5783 5782 5780 5778
5745 5749 5752 5755 5758 5761 5764 5766 5769 5772 5774 5776 5778 5780 5781 5783 5784 5785 5786 5787 5788 5788 5787 5787 5787 5787 5786 5785 5786 5785 5784 5783 5783 5782 5782 5781 5779 5778 5776 5775 5773 5771 5769 5766
5738 5741 5744 5746 5750 5753 5756 5759 5762 5764 5766 5768 5769 5771 5773 5774 5776 5777 5777 5778 5778 5778 5778 5778 5777 5777 5777 5776 5775 5775 5774 5773 5772 5772 5771 5770 5769 5767 5765 5764 5763 5761 5759 5757
5731 5734 5737 5740 5743 5746 5749 5751 5754 5757 5759 5761 5762 5763 5764 5766 5767 5767 5768 5769 5769 5769 5769 5768 5767 5767 5766 5766 5765 5765 5764 5763 5762 5761 5760 5760 5759 5758 5756 5754 5753 5751 5749 5747